Flag for China Weather past 2 weeks in Nanjing, Jiangsu, China

Now
39 °F

Clear.


Feels Like: 37 °F
Forecast: 35 / 51 °F
Wind: 3 mph from East

Location: Nanjing

Current Time: Dec 18, 2014 at 11:34:01 PM

Latest Report: Dec 18, 2014 at 11:00 PM


Visibility: 5 mi

Pressure: 30.42 "Hg

Humidity: 48%

Dew point: 21 °F

Location of NanjingLocation

Historic Weather in Nanjing — Graph

°F

Nanjing temperature yesterday

Maximum temperature yesterday: 46 °F (at 1:00 PM)
Minimum temperature yesterday: 25 °F (at 3:00 AM)
Average temperature yesterday: 34 °F

Past Weeks' High & Low Weather Summary

 TemperatureHumidityPressure
High55 °F (Dec 7, 3:00 PM)100% (Dec 4, 3:00 AM)30.63 "Hg (Dec 4, 3:00 AM)
Low21 °F (Dec 18, 6:00 AM)16% (Dec 17, 12:00 PM)30.21 "Hg (Dec 7, 2:00 PM)
Average38 °F65%30.42 "Hg
* Reported Dec 3 10:00 PM — Dec 18 10:00 PM, Nanjing, Weather by CustomWeather, © 2014

Note: Actual official high and low records may vary slightly from our data, if they occured in-between our weather recording intervals... More about our weather records

Advertising

Nanjing weather history for previous 24 hours

 ConditionsComfort  
Time TempWeatherWind HumidityBarometerVisibility
10:00 PM
Dec 18
41 °FClear.3 mph42%30.42 "Hg5 mi
9:00 PM41 °FClear.6 mph42%30.45 "Hg5 mi
8:00 PM41 °FClear.6 mph39%30.45 "Hg5 mi
7:00 PM43 °FClear.6 mph36%30.45 "Hg4 mi
6:00 PM43 °FClear.8 mph34%30.45 "Hg10 mi
5:00 PM45 °FSunny.8 mph29%30.45 "Hg10 mi
4:00 PM48 °FSunny.8 mph23%30.45 "Hg10 mi
3:00 PM50 °FSunny.8 mph22%30.45 "Hg10 mi
2:00 PM50 °FSunny.8 mph22%30.45 "Hg10 mi
1:00 PM48 °FSunny.10 mph21%30.48 "Hg10 mi
12:00 PM48 °FPassing clouds.10 mph21%30.51 "HgN/A
11:00 AM46 °FSunny.10 mph23%30.54 "Hg10 mi
10:00 AM41 °FPassing clouds.3 mph45%30.57 "HgN/A
8:00 AM27 °FIce fog.1 mph93%30.57 "Hg3 mi
7:00 AM23 °FIce fog.1 mph93%30.54 "Hg3 mi
6:00 AM21 °FIce fog.No wind93%30.54 "Hg3 mi
5:00 AM23 °FClear.1 mph93%30.54 "Hg5 mi
4:00 AM23 °FClear.1 mph93%30.51 "Hg5 mi
3:00 AM23 °FClear.No wind93%30.51 "Hg5 mi
2:00 AM23 °FClear.1 mph93%30.54 "Hg5 mi
1:00 AM25 °FClear.No wind100%30.51 "Hg5 mi
12:00 AM25 °FClear.No wind93%30.51 "Hg10 mi
11:00 PM
Dec 17
27 °FClear.1 mph93%30.54 "Hg10 mi
Weather by CustomWeather, © 2014

See weather overviewHow to use our weather pages